STARLINK-35524 (65914 NORAD) Tracking and Keplerian Element Data

This shows tracking and keplerian element data for the satellite.

Feedback or suggestion? Click here.




ElementValue
Catalog65914
NameSTARLINK-35524
Epoch Orbit1224
Epoch Day354.20655972
Epoch Year2025
RAAN174.5292
Inclination53.1565
Eccentricity0.0001108
Argument of Perigee101.4574
Mean Anonmoly258.6552
Mean Motion15.30184276
Decay Rate0.00018343
L11 65914U 25225E 25354.20655972 .00018343 00000+0 63022-3 0 9990
L22 65914 53.1565 174.5292 0001108 101.4574 258.6552 15.30184276 12243



Live tracking and technical data element details for STARLINK-35524 (NORAD 65914). STARLINK-35524 can be tracked NOW for your location showing map with azimuth and elevation plus other details from your city location.







IsCatalogInMostPopularTable: catalog: 65914, numindb: 3
Update: records affected: 1



GetName: 65914 STARLINK-35524

Hit Count: updated at: Mon, 09 Feb 2026 09:35:52 GMT